SRV160M LPPD-LPLA

Flight info

Callsign SRV160M
Flight time 0h 22m
Altitude 13000
Route MIPRU H113 LM
Aircraft A20N/M-SDE2E3FGHIRWXY/LB1

Departure

Time 2026-05-04 23:08
Airport João Paulo II Airport (LPPD)

Arrival

Time 2026-05-04 23:30
Airport Lajes Airport (LPLA)
Time Latitude Longitude Altitude Speed Heading
2026-05-04 22:57 37.74835 -25.70996 264 ft 0 kts 21°
2026-05-04 23:03 37.74821 -25.71004 264 ft 4 kts 22°
2026-05-04 23:03 37.74797 -25.71019 264 ft 4 kts 40°
2026-05-04 23:04 37.74782 -25.71044 265 ft 4 kts 83°
2026-05-04 23:04 37.74782 -25.71062 265 ft 1 kts 109°
2026-05-04 23:04 37.74783 -25.71065 265 ft 0 kts 109°
2026-05-04 23:06 37.74774 -25.71038 265 ft 8 kts 120°
2026-05-04 23:06 37.74707 -25.71019 263 ft 9 kts 182°
2026-05-04 23:06 37.74649 -25.71051 263 ft 11 kts 229°
2026-05-04 23:07 37.74597 -25.71034 262 ft 10 kts 112°
2026-05-04 23:07 37.74547 -25.70874 257 ft 44 kts 112°
2026-05-04 23:07 37.74348 -25.70241 238 ft 109 kts 112°
2026-05-04 23:07 37.74005 -25.69160 218 ft 156 kts 109°
2026-05-04 23:08 37.73586 -25.67870 691 ft 160 kts 105°
2026-05-04 23:08 37.73192 -25.66526 1286 ft 163 kts 105°
2026-05-04 23:08 37.72812 -25.65221 2029 ft 155 kts 105°
2026-05-04 23:08 37.72423 -25.63881 2393 ft 173 kts 106°
2026-05-04 23:09 37.71770 -25.62477 2731 ft 203 kts 133°
2026-05-04 23:09 37.70411 -25.61631 3125 ft 237 kts 167°
2026-05-04 23:09 37.68692 -25.61841 3715 ft 262 kts 199°
2026-05-04 23:09 37.67118 -25.63163 4293 ft 284 kts 229°
2026-05-04 23:10 37.66190 -25.65332 5296 ft 280 kts 258°
2026-05-04 23:10 37.66132 -25.67755 6273 ft 277 kts 286°
2026-05-04 23:10 37.66928 -25.69955 7055 ft 279 kts 313°
2026-05-04 23:10 37.68395 -25.71413 7978 ft 270 kts 340°
2026-05-04 23:11 37.70221 -25.71863 8813 ft 268 kts
2026-05-04 23:11 37.72069 -25.71476 9658 ft 273 kts 15°
2026-05-04 23:11 37.73950 -25.70935 10420 ft 279 kts 10°
2026-05-04 23:11 37.75933 -25.70858 11012 ft 296 kts 356°
2026-05-04 23:12 37.78026 -25.71449 11283 ft 322 kts 343°
2026-05-04 23:12 37.80151 -25.72590 11686 ft 339 kts 336°
2026-05-04 23:12 37.82240 -25.74001 12554 ft 341 kts 333°
2026-05-04 23:12 37.84224 -25.75653 13066 ft 345 kts 324°
2026-05-04 23:13 37.86030 -25.77694 13257 ft 351 kts 316°
2026-05-04 23:13 37.87646 -25.80005 13291 ft 350 kts 313°
2026-05-04 23:13 37.89266 -25.82324 13292 ft 351 kts 314°
2026-05-04 23:13 37.90890 -25.84627 13292 ft 350 kts 314°
2026-05-04 23:14 37.92518 -25.86926 13292 ft 350 kts 314°
2026-05-04 23:14 37.94142 -25.89213 13290 ft 350 kts 314°
2026-05-04 23:14 37.95775 -25.91521 13290 ft 352 kts 314°
2026-05-04 23:14 37.97386 -25.93800 13290 ft 351 kts 315°
2026-05-04 23:15 37.99014 -25.96102 13289 ft 351 kts 314°
2026-05-04 23:15 38.00649 -25.98411 13292 ft 352 kts 314°
2026-05-04 23:15 38.02276 -26.00722 13293 ft 351 kts 314°
2026-05-04 23:15 38.03909 -26.03037 13293 ft 352 kts 313°
2026-05-04 23:16 38.05541 -26.05350 13293 ft 352 kts 314°
2026-05-04 23:16 38.07175 -26.07673 13295 ft 351 kts 314°
2026-05-04 23:16 38.08803 -26.09985 13296 ft 351 kts 314°
2026-05-04 23:16 38.10412 -26.12271 13289 ft 351 kts 315°
2026-05-04 23:17 38.12046 -26.14598 13295 ft 353 kts 315°
2026-05-04 23:17 38.13682 -26.16927 13297 ft 353 kts 314°
2026-05-04 23:17 38.15318 -26.19251 13298 ft 352 kts 314°
2026-05-04 23:17 38.16944 -26.21580 13297 ft 353 kts 314°
2026-05-04 23:18 38.18577 -26.23904 13297 ft 352 kts 314°
2026-05-04 23:18 38.20211 -26.26230 13296 ft 352 kts 313°
2026-05-04 23:18 38.21839 -26.28561 13114 ft 353 kts 314°
2026-05-04 23:18 38.23464 -26.30886 12850 ft 350 kts 314°
2026-05-04 23:19 38.25079 -26.33194 12610 ft 348 kts 314°
2026-05-04 23:19 38.26683 -26.35493 12356 ft 347 kts 314°
2026-05-04 23:19 38.28216 -26.37883 12017 ft 350 kts 309°
2026-05-04 23:19 38.29680 -26.40355 11546 ft 349 kts 309°
2026-05-04 23:20 38.31143 -26.42816 11072 ft 347 kts 309°
2026-05-04 23:20 38.32570 -26.45227 10735 ft 340 kts 309°
2026-05-04 23:20 38.33965 -26.47577 10607 ft 326 kts 309°
2026-05-04 23:20 38.35305 -26.49839 10487 ft 313 kts 309°
2026-05-04 23:21 38.36591 -26.52015 10360 ft 301 kts 309°
2026-05-04 23:21 38.37841 -26.54124 10030 ft 297 kts 310°
2026-05-04 23:21 38.39075 -26.56214 9658 ft 294 kts 310°
2026-05-04 23:21 38.40299 -26.58278 9290 ft 290 kts 309°
2026-05-04 23:22 38.41508 -26.60327 8914 ft 287 kts 310°
2026-05-04 23:22 38.42707 -26.62356 8572 ft 284 kts 310°
2026-05-04 23:22 38.43878 -26.64339 8216 ft 282 kts 310°
2026-05-04 23:22 38.45051 -26.66327 7861 ft 279 kts 310°
2026-05-04 23:23 38.46216 -26.68299 7509 ft 277 kts 309°
2026-05-04 23:23 38.47371 -26.70259 7156 ft 275 kts 310°
2026-05-04 23:23 38.48518 -26.72209 6811 ft 274 kts 310°
2026-05-04 23:23 38.49660 -26.74147 6468 ft 271 kts 310°
2026-05-04 23:24 38.50799 -26.76082 6340 ft 276 kts 310°
2026-05-04 23:24 38.51950 -26.78040 6299 ft 275 kts 310°
2026-05-04 23:24 38.53097 -26.79993 6227 ft 276 kts 310°
2026-05-04 23:24 38.54253 -26.81961 6304 ft 277 kts 310°
2026-05-04 23:25 38.55400 -26.83916 6313 ft 274 kts 309°
2026-05-04 23:25 38.56540 -26.85862 6298 ft 272 kts 310°
2026-05-04 23:25 38.57661 -26.87776 6235 ft 264 kts 310°
2026-05-04 23:25 38.58739 -26.89620 6129 ft 252 kts 310°
2026-05-04 23:26 38.59879 -26.91200 5915 ft 235 kts 319°
2026-05-04 23:26 38.61083 -26.92621 5419 ft 237 kts 321°
2026-05-04 23:26 38.62303 -26.94020 5109 ft 234 kts 321°
2026-05-04 23:26 38.63515 -26.95393 4731 ft 233 kts 322°
2026-05-04 23:27 38.64726 -26.96752 4396 ft 230 kts 322°
2026-05-04 23:27 38.65916 -26.98076 3823 ft 226 kts 323°
2026-05-04 23:27 38.67108 -26.99388 3234 ft 222 kts 323°
2026-05-04 23:27 38.68223 -27.00611 3076 ft 198 kts 323°
2026-05-04 23:28 38.69202 -27.01685 2820 ft 176 kts 324°
2026-05-04 23:28 38.70105 -27.02666 2423 ft 164 kts 326°
2026-05-04 23:28 38.70952 -27.03617 1932 ft 160 kts 324°
2026-05-04 23:28 38.71786 -27.04516 1494 ft 155 kts 328°
2026-05-04 23:29 38.72615 -27.05369 1086 ft 150 kts 329°
2026-05-04 23:29 38.73418 -27.06148 777 ft 139 kts 327°
2026-05-04 23:29 38.74126 -27.06932 529 ft 129 kts 322°
2026-05-04 23:29 38.74851 -27.07695 367 ft 135 kts 325°
2026-05-04 23:30 38.75568 -27.08436 201 ft 132 kts 323°
2026-05-04 23:30 38.76192 -27.09086 180 ft 93 kts 320°
2026-05-04 23:30 38.76539 -27.09451 179 ft 39 kts 321°
2026-05-04 23:30 38.76693 -27.09609 180 ft 10 kts 327°
2026-05-04 23:31 38.76754 -27.09653 179 ft 3 kts 274°
2026-05-04 23:31 38.76729 -27.09658 180 ft 4 kts 161°
2026-05-04 23:31 38.76701 -27.09626 180 ft 8 kts 138°
2026-05-04 23:31 38.76656 -27.09574 180 ft 16 kts 138°
2026-05-04 23:32 38.76554 -27.09464 179 ft 22 kts 140°
2026-05-04 23:32 38.76424 -27.09330 179 ft 25 kts 140°
2026-05-04 23:32 38.76282 -27.09181 178 ft 26 kts 141°
2026-05-04 23:32 38.76143 -27.09035 179 ft 26 kts 142°
2026-05-04 23:33 38.76011 -27.08900 181 ft 14 kts 142°
2026-05-04 23:33 38.75913 -27.08893 180 ft 16 kts 186°
2026-05-04 23:33 38.75788 -27.08911 178 ft 18 kts 183°
2026-05-04 23:33 38.75673 -27.08880 178 ft 17 kts 142°
2026-05-04 23:34 38.75610 -27.08813 178 ft 11 kts 137°
2026-05-04 23:34 38.75599 -27.08748 178 ft 0 kts 89°